GEFSMW_prec_meanprecacc_234.txt.gz
Total_Precipitation_Accumulation
1.72 2.18 2.73 3.57 4.65 5.56 5.83 5.33 4.83 4.49 4.07 3.67 3.10 2.74 2.71 2.62 2.33 2.05 1.77 1.70 1.66 1.74 1.84 1.65 1.77 1.66 1.70 1.74 1.78 1.89 1.88 1.83 1.90 2.07 2.04 1.75 1.53 1.51 1.49 1.57 1.77 1.66 1.61
1.89 2.60 3.63 4.22 4.45 4.58 4.35 4.01 3.75 3.55 3.09 2.74 2.51 2.27 2.26 2.06 1.87 1.78 1.76 1.50 1.44 1.51 1.48 1.63 1.60 1.56 1.72 1.75 1.71 1.77 1.74 1.62 1.68 1.92 2.14 1.86 1.69 1.40 1.08 1.22 1.23 1.32 1.58
2.07 2.87 3.44 3.57 3.28 2.97 2.87 2.83 2.90 2.65 2.52 2.48 2.37 2.28 2.29 2.06 1.79 1.69 1.65 1.41 1.24 1.26 1.33 1.38 1.41 1.54 1.53 1.65 1.70 1.60 1.64 1.67 1.63 1.68 1.99 1.96 1.80 1.54 1.14 1.00 1.06 1.21 1.40
1.59 2.01 2.25 2.15 2.26 2.40 2.42 2.54 2.63 2.38 2.35 2.30 2.02 1.93 1.83 1.74 1.60 1.54 1.52 1.59 1.34 1.18 1.15 1.21 1.27 1.39 1.36 1.55 1.41 1.48 1.67 1.72 1.58 1.53 1.49 1.56 1.62 1.71 1.49 1.18 1.04 1.13 1.21
0.98 1.09 1.22 1.38 1.59 1.70 1.87 2.17 2.41 2.35 2.18 2.03 1.97 2.03 1.89 1.83 1.80 1.81 1.77 1.74 1.59 1.34 1.19 1.26 1.32 1.36 1.30 1.33 1.33 1.60 1.61 1.54 1.47 1.45 1.48 1.49 1.48 1.47 1.51 1.39 1.22 1.15 0.99
0.84 0.88 0.94 1.08 1.25 1.37 1.54 1.79 2.09 2.23 2.16 2.01 1.93 1.96 2.02 1.96 1.86 1.83 1.78 1.59 1.48 1.41 1.27 1.28 1.32 1.27 1.24 1.22 1.22 1.43 1.46 1.50 1.54 1.48 1.38 1.46 1.44 1.42 1.53 1.36 1.19 1.09 0.80
0.87 0.94 0.90 0.87 0.93 1.08 1.22 1.32 1.50 1.77 1.90 1.87 1.85 1.86 1.99 1.90 1.71 1.58 1.48 1.42 1.24 1.15 1.18 1.20 1.24 1.13 1.14 1.24 1.39 1.41 1.39 1.45 1.48 1.39 1.31 1.30 1.18 1.26 1.35 1.26 1.08 1.06 0.87
0.77 0.80 0.78 0.74 0.72 0.80 0.97 1.09 1.28 1.47 1.68 1.70 1.68 1.69 1.75 1.69 1.57 1.55 1.32 1.23 1.18 1.11 1.15 1.17 1.13 1.12 1.16 1.18 1.42 1.33 1.31 1.36 1.32 1.21 1.41 1.35 1.12 1.24 1.30 1.35 1.49 1.37 1.22
0.58 0.68 0.73 0.79 0.77 0.74 0.84 0.97 1.21 1.41 1.59 1.69 1.72 1.65 1.63 1.63 1.62 1.56 1.36 1.19 1.28 1.21 1.27 1.25 1.21 1.22 1.32 1.43 1.54 1.42 1.41 1.45 1.29 1.28 1.48 1.43 1.28 1.29 1.26 1.39 1.60 1.73 1.52
0.59 0.78 0.91 0.86 0.71 0.60 0.67 0.83 1.04 1.30 1.47 1.62 1.62 1.51 1.67 1.63 1.62 1.54 1.43 1.30 1.29 1.28 1.34 1.33 1.28 1.34 1.40 1.50 1.57 1.45 1.50 1.48 1.40 1.44 1.57 1.56 1.44 1.45 1.41 1.44 1.59 1.81 1.79
0.67 0.80 0.98 0.94 0.69 0.56 0.58 0.70 0.92 1.16 1.27 1.36 1.43 1.41 1.46 1.43 1.45 1.47 1.45 1.43 1.41 1.36 1.34 1.34 1.34 1.33 1.39 1.46 1.53 1.45 1.46 1.43 1.44 1.45 1.50 1.50 1.62 1.66 1.63 1.73 1.76 1.83 1.97
0.74 0.66 0.74 0.89 0.83 0.71 0.62 0.72 0.90 1.04 1.08 1.14 1.16 1.21 1.32 1.37 1.34 1.31 1.36 1.42 1.36 1.30 1.34 1.38 1.34 1.24 1.31 1.44 1.45 1.40 1.44 1.48 1.44 1.51 1.67 1.60 1.65 1.73 1.80 1.94 1.86 1.91 2.15
0.56 0.54 0.62 0.72 0.85 0.81 0.70 0.78 0.88 0.97 1.04 0.99 0.99 1.04 1.12 1.15 1.16 1.19 1.27 1.35 1.38 1.37 1.34 1.31 1.23 1.22 1.26 1.32 1.35 1.45 1.56 1.61 1.64 1.72 1.81 1.84 1.98 1.90 1.92 1.97 1.95 2.00 2.22
0.60 0.55 0.57 0.72 0.82 0.86 0.81 0.79 0.87 1.02 1.05 0.99 1.07 1.18 1.22 1.24 1.25 1.26 1.35 1.44 1.49 1.46 1.46 1.45 1.48 1.49 1.44 1.42 1.47 1.58 1.66 1.68 1.75 1.89 1.91 1.93 1.98 2.03 2.13 2.13 2.22 2.36 2.53
0.60 0.58 0.64 0.78 0.85 0.98 1.00 0.94 0.93 0.99 1.09 1.18 1.27 1.45 1.60 1.61 1.51 1.51 1.62 1.71 1.75 1.70 1.82 1.80 1.77 1.80 1.75 1.59 1.67 1.74 1.73 1.83 1.78 1.84 1.88 1.85 1.93 1.99 2.09 2.06 2.23 2.50 2.70
0.56 0.52 0.62 0.80 0.81 0.81 0.86 0.85 0.86 0.91 0.94 1.04 1.16 1.38 1.56 1.63 1.63 1.68 1.80 1.84 1.83 1.93 1.99 1.93 1.92 1.91 1.69 1.80 1.86 1.83 1.89 1.94 1.90 1.91 1.92 1.89 1.86 1.79 1.82 1.89 2.00 2.16 2.37
0.55 0.56 0.59 0.69 0.85 0.78 0.75 0.83 0.88 0.96 1.05 1.20 1.36 1.48 1.59 1.68 1.70 1.70 1.79 1.86 1.87 1.86 1.92 1.95 1.96 1.86 1.81 1.82 1.69 1.69 1.68 1.78 1.85 1.89 1.89 1.73 1.61 1.64 1.56 1.69 1.73 1.72 1.79
0.75 0.79 0.85 0.86 0.93 0.92 0.89 0.94 0.97 1.04 1.10 1.19 1.31 1.41 1.58 1.70 1.78 1.90 1.97 2.05 2.12 2.14 2.14 2.07 2.03 2.00 1.89 1.78 1.63 1.65 1.52 1.56 1.61 1.66 1.70 1.71 1.62 1.60 1.67 1.66 1.55 1.40 1.39
0.82 0.88 0.94 0.97 0.96 1.04 1.12 1.21 1.20 1.26 1.32 1.37 1.53 1.67 1.77 1.92 1.99 2.02 2.13 2.24 2.33 2.30 2.27 2.22 2.24 2.26 2.25 2.15 1.84 1.72 1.59 1.64 1.65 1.64 1.65 1.65 1.52 1.59 1.53 1.49 1.48 1.39 1.32
0.91 0.97 0.94 0.93 1.03 1.11 1.20 1.31 1.44 1.56 1.66 1.69 1.76 1.87 2.02 2.10 2.09 2.09 2.14 2.15 2.19 2.20 2.20 2.13 2.19 2.17 2.19 2.24 1.92 1.70 1.52 1.57 1.61 1.68 1.69 1.71 1.56 1.61 1.56 1.52 1.54 1.45 1.36
1.09 1.06 1.03 1.05 1.08 1.09 1.16 1.30 1.47 1.63 1.70 1.73 1.80 1.91 2.02 2.21 2.30 2.31 2.19 2.04 2.01 2.05 2.13 2.12 2.17 2.18 2.15 2.10 1.75 1.59 1.53 1.60 1.63 1.58 1.55 1.59 1.61 1.46 1.36 1.31 1.30 1.37 1.40
1.19 1.18 1.16 1.12 1.12 1.18 1.25 1.36 1.51 1.60 1.67 1.70 1.79 1.88 1.92 1.94 2.00 2.22 2.28 2.19 2.09 2.02 2.04 2.11 2.08 2.03 1.99 1.87 1.56 1.30 1.27 1.36 1.41 1.42 1.41 1.42 1.39 1.21 1.09 0.97 0.96 1.02 1.02
1.09 1.12 1.16 1.19 1.23 1.28 1.35 1.50 1.57 1.65 1.67 1.77 1.91 2.02 2.01 1.98 1.97 2.01 2.08 2.04 1.97 1.84 1.72 1.79 1.84 1.84 1.85 1.74 1.47 1.20 1.10 1.12 1.10 1.19 1.39 1.40 1.26 1.15 1.08 1.03 0.95 0.86 0.80
1.10 1.16 1.16 1.20 1.33 1.44 1.56 1.59 1.57 1.68 1.85 1.92 1.94 1.97 1.96 1.90 1.93 2.04 1.99 1.93 1.92 1.81 1.62 1.67 1.77 1.83 1.84 1.72 1.51 1.35 1.27 1.23 1.18 1.21 1.36 1.42 1.39 1.31 1.22 1.12 0.96 0.80 0.78
1.05 1.13 1.21 1.26 1.34 1.42 1.54 1.63 1.66 1.72 1.82 1.77 1.67 1.70 1.75 1.73 1.72 1.84 1.90 1.74 1.70 1.76 1.69 1.77 1.94 1.90 1.75 1.60 1.44 1.27 1.26 1.27 1.32 1.33 1.44 1.56 1.58 1.54 1.42 1.26 1.10 0.97 0.92
0.99 1.07 1.15 1.25 1.32 1.38 1.44 1.47 1.53 1.63 1.73 1.77 1.69 1.63 1.60 1.63 1.67 1.67 1.69 1.68 1.48 1.47 1.43 1.48 1.57 1.62 1.52 1.40 1.29 1.20 1.17 1.12 1.13 1.15 1.33 1.60 1.67 1.66 1.63 1.50 1.31 1.16 1.07

GEFSMW_prec_meanprecacc_240.txt.gz
Total_Precipitation_Accumulation
1.73 2.19 2.74 3.59 4.66 5.57 5.84 5.34 4.85 4.50 4.07 3.67 3.10 2.74 2.71 2.63 2.35 2.07 1.80 1.72 1.68 1.77 1.87 1.68 1.82 1.70 1.73 1.80 1.84 1.95 1.94 1.88 1.95 2.11 2.07 1.78 1.56 1.54 1.51 1.59 1.78 1.68 1.63
1.89 2.61 3.64 4.22 4.46 4.58 4.35 4.01 3.76 3.55 3.09 2.74 2.51 2.27 2.27 2.07 1.89 1.80 1.79 1.52 1.46 1.54 1.50 1.67 1.66 1.61 1.75 1.80 1.77 1.83 1.80 1.68 1.73 1.95 2.17 1.89 1.71 1.42 1.09 1.23 1.25 1.34 1.60
2.07 2.87 3.45 3.57 3.28 2.97 2.88 2.83 2.90 2.65 2.52 2.48 2.38 2.28 2.29 2.06 1.80 1.70 1.66 1.43 1.27 1.30 1.37 1.43 1.48 1.60 1.58 1.69 1.75 1.65 1.69 1.72 1.70 1.74 2.03 1.99 1.82 1.56 1.15 1.01 1.08 1.23 1.42
1.60 2.02 2.25 2.15 2.26 2.40 2.42 2.54 2.63 2.38 2.35 2.30 2.03 1.93 1.83 1.74 1.61 1.55 1.53 1.62 1.37 1.22 1.20 1.25 1.33 1.45 1.41 1.59 1.46 1.51 1.70 1.76 1.63 1.58 1.52 1.59 1.64 1.73 1.50 1.19 1.04 1.14 1.23
0.98 1.09 1.22 1.38 1.60 1.71 1.87 2.17 2.41 2.35 2.19 2.03 1.97 2.03 1.89 1.84 1.81 1.82 1.79 1.76 1.62 1.38 1.23 1.29 1.35 1.39 1.33 1.36 1.37 1.64 1.64 1.58 1.53 1.51 1.52 1.52 1.51 1.49 1.53 1.40 1.23 1.16 1.00
0.84 0.88 0.94 1.09 1.26 1.38 1.54 1.79 2.10 2.24 2.17 2.01 1.93 1.97 2.02 1.97 1.87 1.83 1.79 1.60 1.50 1.44 1.32 1.32 1.35 1.29 1.26 1.25 1.26 1.48 1.50 1.54 1.58 1.52 1.42 1.49 1.46 1.43 1.55 1.38 1.20 1.09 0.81
0.88 0.95 0.90 0.88 0.94 1.08 1.23 1.33 1.52 1.79 1.91 1.88 1.86 1.88 2.01 1.92 1.72 1.59 1.49 1.43 1.25 1.17 1.21 1.24 1.28 1.15 1.17 1.27 1.42 1.45 1.43 1.49 1.51 1.42 1.34 1.32 1.20 1.28 1.37 1.28 1.09 1.07 0.88
0.77 0.81 0.79 0.75 0.73 0.81 0.99 1.12 1.32 1.50 1.69 1.72 1.71 1.72 1.78 1.71 1.58 1.56 1.34 1.25 1.20 1.14 1.18 1.20 1.16 1.14 1.19 1.22 1.47 1.37 1.35 1.39 1.35 1.24 1.44 1.38 1.15 1.27 1.32 1.37 1.51 1.38 1.22
0.59 0.70 0.74 0.82 0.79 0.76 0.87 1.01 1.26 1.45 1.63 1.74 1.76 1.68 1.67 1.66 1.64 1.60 1.40 1.23 1.32 1.24 1.29 1.27 1.23 1.24 1.34 1.47 1.59 1.46 1.45 1.50 1.33 1.32 1.51 1.45 1.31 1.33 1.29 1.42 1.63 1.75 1.53
0.63 0.82 0.95 0.91 0.76 0.64 0.71 0.88 1.08 1.35 1.52 1.67 1.67 1.55 1.71 1.67 1.66 1.59 1.47 1.34 1.33 1.31 1.36 1.34 1.29 1.35 1.41 1.53 1.60 1.48 1.54 1.53 1.43 1.47 1.60 1.59 1.48 1.48 1.43 1.47 1.62 1.84 1.81
0.72 0.87 1.03 0.99 0.77 0.65 0.63 0.75 0.98 1.22 1.34 1.43 1.52 1.49 1.53 1.50 1.51 1.53 1.51 1.47 1.44 1.37 1.35 1.35 1.35 1.34 1.40 1.47 1.54 1.47 1.51 1.47 1.47 1.48 1.53 1.53 1.64 1.67 1.65 1.75 1.78 1.86 1.99
0.77 0.70 0.80 0.96 0.90 0.78 0.68 0.79 1.00 1.15 1.19 1.27 1.30 1.33 1.41 1.43 1.39 1.35 1.40 1.44 1.38 1.31 1.35 1.40 1.35 1.25 1.32 1.46 1.48 1.41 1.47 1.51 1.47 1.54 1.70 1.63 1.67 1.74 1.82 1.96 1.88 1.92 2.17
0.58 0.57 0.66 0.79 0.94 0.90 0.80 0.90 1.01 1.09 1.17 1.13 1.13 1.15 1.20 1.21 1.21 1.23 1.30 1.39 1.41 1.39 1.36 1.32 1.25 1.23 1.28 1.35 1.37 1.47 1.58 1.63 1.66 1.74 1.82 1.85 2.00 1.91 1.95 2.00 1.97 2.02 2.24
0.61 0.58 0.63 0.79 0.90 0.95 0.92 0.90 0.97 1.12 1.15 1.08 1.15 1.26 1.29 1.31 1.31 1.31 1.39 1.48 1.53 1.48 1.48 1.47 1.49 1.50 1.45 1.44 1.49 1.60 1.68 1.71 1.77 1.91 1.93 1.94 2.00 2.05 2.16 2.17 2.25 2.39 2.56
0.62 0.61 0.68 0.84 0.92 1.05 1.09 1.04 1.01 1.07 1.18 1.25 1.34 1.51 1.65 1.65 1.55 1.56 1.66 1.74 1.78 1.72 1.83 1.81 1.79 1.83 1.77 1.60 1.70 1.77 1.76 1.86 1.80 1.87 1.91 1.88 1.97 2.02 2.12 2.09 2.26 2.55 2.74
0.58 0.55 0.66 0.85 0.87 0.87 0.93 0.92 0.93 0.97 1.00 1.09 1.22 1.42 1.62 1.71 1.72 1.78 1.88 1.91 1.88 1.97 2.03 1.96 1.95 1.94 1.72 1.84 1.89 1.87 1.93 1.98 1.93 1.93 1.95 1.93 1.90 1.83 1.86 1.93 2.04 2.21 2.41
0.57 0.59 0.63 0.74 0.90 0.82 0.79 0.87 0.93 1.02 1.10 1.26 1.43 1.56 1.74 1.87 1.89 1.86 1.89 1.93 1.93 1.91 1.96 1.98 1.99 1.89 1.84 1.86 1.73 1.74 1.74 1.83 1.89 1.93 1.93 1.76 1.64 1.67 1.60 1.73 1.78 1.77 1.84
0.78 0.83 0.89 0.90 0.98 0.96 0.93 0.99 1.03 1.15 1.21 1.27 1.40 1.51 1.70 1.83 1.90 2.00 2.06 2.13 2.16 2.16 2.17 2.10 2.06 2.03 1.91 1.82 1.68 1.72 1.59 1.63 1.68 1.71 1.74 1.74 1.64 1.62 1.69 1.69 1.59 1.45 1.44
0.86 0.92 0.98 1.02 1.02 1.10 1.18 1.26 1.24 1.35 1.47 1.49 1.64 1.77 1.84 1.97 2.05 2.09 2.20 2.30 2.37 2.33 2.30 2.26 2.28 2.30 2.28 2.19 1.89 1.77 1.64 1.69 1.69 1.68 1.68 1.68 1.54 1.62 1.57 1.52 1.53 1.45 1.38
0.96 1.01 0.98 0.98 1.09 1.16 1.26 1.37 1.51 1.64 1.80 1.87 1.91 1.97 2.09 2.14 2.13 2.12 2.17 2.19 2.22 2.23 2.24 2.18 2.24 2.21 2.23 2.29 1.97 1.74 1.56 1.61 1.65 1.73 1.74 1.76 1.60 1.66 1.60 1.57 1.59 1.50 1.42
1.14 1.11 1.09 1.12 1.15 1.15 1.23 1.39 1.59 1.74 1.81 1.87 1.93 2.02 2.11 2.27 2.34 2.35 2.22 2.08 2.05 2.10 2.18 2.18 2.23 2.24 2.21 2.15 1.79 1.63 1.58 1.65 1.69 1.64 1.60 1.65 1.66 1.51 1.41 1.36 1.35 1.41 1.44
1.23 1.23 1.22 1.19 1.20 1.26 1.32 1.43 1.59 1.70 1.78 1.80 1.90 1.99 2.03 2.05 2.08 2.29 2.34 2.25 2.15 2.09 2.11 2.16 2.13 2.07 2.03 1.91 1.60 1.34 1.31 1.40 1.44 1.45 1.43 1.43 1.40 1.23 1.11 1.00 0.98 1.05 1.05
1.12 1.16 1.20 1.24 1.28 1.33 1.41 1.54 1.62 1.71 1.74 1.85 2.00 2.11 2.12 2.15 2.13 2.13 2.19 2.14 2.06 1.92 1.79 1.85 1.89 1.90 1.90 1.79 1.52 1.24 1.13 1.15 1.11 1.20 1.40 1.40 1.27 1.16 1.09 1.04 0.96 0.88 0.81
1.14 1.19 1.19 1.23 1.37 1.47 1.59 1.62 1.61 1.72 1.89 1.96 2.00 2.03 2.04 2.02 2.09 2.19 2.12 2.04 2.03 1.96 1.78 1.80 1.87 1.91 1.91 1.79 1.58 1.42 1.32 1.26 1.19 1.22 1.37 1.43 1.40 1.31 1.23 1.13 0.97 0.80 0.79
1.08 1.16 1.25 1.29 1.37 1.45 1.57 1.66 1.68 1.75 1.84 1.79 1.71 1.74 1.81 1.82 1.82 1.96 2.02 1.84 1.78 1.84 1.79 1.89 2.07 2.02 1.85 1.70 1.54 1.35 1.32 1.31 1.36 1.36 1.46 1.57 1.59 1.55 1.43 1.27 1.11 0.98 0.93
1.01 1.09 1.18 1.29 1.35 1.40 1.46 1.50 1.55 1.65 1.76 1.80 1.73 1.66 1.64 1.68 1.73 1.74 1.77 1.75 1.53 1.52 1.48 1.54 1.65 1.72 1.63 1.52 1.43 1.32 1.26 1.19 1.19 1.20 1.36 1.63 1.69 1.69 1.66 1.53 1.34 1.18 1.08

GEFSMW_prec_meanprecacc_246.txt.gz
Total_Precipitation_Accumulation
1.73 2.19 2.74 3.59 4.67 5.57 5.84 5.35 4.86 4.51 4.10 3.70 3.13 2.77 2.75 2.67 2.38 2.09 1.82 1.75 1.72 1.80 1.93 1.74 1.92 1.80 1.85 1.93 1.99 2.07 2.03 1.97 2.02 2.17 2.13 1.82 1.60 1.57 1.53 1.60 1.81 1.70 1.66
1.89 2.61 3.64 4.22 4.46 4.59 4.35 4.03 3.77 3.55 3.10 2.76 2.53 2.29 2.30 2.10 1.92 1.82 1.81 1.56 1.50 1.58 1.54 1.74 1.77 1.73 1.89 1.93 1.89 1.96 1.91 1.75 1.79 2.03 2.27 1.96 1.78 1.48 1.14 1.26 1.28 1.36 1.62
2.07 2.87 3.45 3.57 3.29 2.97 2.89 2.84 2.91 2.66 2.53 2.50 2.40 2.30 2.31 2.08 1.82 1.72 1.69 1.46 1.30 1.32 1.40 1.48 1.57 1.72 1.68 1.79 1.87 1.78 1.80 1.82 1.77 1.80 2.11 2.09 1.90 1.64 1.22 1.06 1.11 1.26 1.45
1.60 2.02 2.25 2.15 2.26 2.40 2.43 2.55 2.64 2.38 2.36 2.32 2.04 1.95 1.85 1.76 1.64 1.58 1.56 1.64 1.39 1.25 1.23 1.30 1.39 1.53 1.48 1.69 1.55 1.61 1.80 1.85 1.72 1.67 1.60 1.66 1.73 1.84 1.60 1.25 1.08 1.17 1.26
0.98 1.09 1.22 1.38 1.60 1.71 1.88 2.17 2.42 2.36 2.20 2.04 1.98 2.05 1.91 1.86 1.84 1.85 1.81 1.79 1.63 1.40 1.26 1.31 1.38 1.44 1.39 1.44 1.46 1.75 1.75 1.67 1.61 1.57 1.58 1.58 1.57 1.56 1.61 1.48 1.28 1.19 1.01
0.84 0.88 0.94 1.09 1.26 1.38 1.55 1.79 2.11 2.24 2.17 2.02 1.94 1.98 2.03 1.99 1.89 1.86 1.81 1.62 1.52 1.48 1.36 1.35 1.38 1.33 1.30 1.31 1.34 1.58 1.61 1.63 1.66 1.62 1.50 1.57 1.54 1.49 1.61 1.43 1.25 1.13 0.82
0.88 0.95 0.91 0.88 0.94 1.09 1.24 1.34 1.53 1.81 1.92 1.89 1.88 1.89 2.02 1.94 1.74 1.62 1.53 1.47 1.28 1.21 1.25 1.28 1.34 1.19 1.20 1.32 1.50 1.55 1.52 1.58 1.60 1.51 1.42 1.39 1.26 1.34 1.43 1.34 1.14 1.11 0.90
0.78 0.81 0.79 0.76 0.74 0.82 1.01 1.14 1.35 1.54 1.73 1.74 1.72 1.74 1.82 1.74 1.61 1.60 1.39 1.30 1.24 1.17 1.22 1.23 1.19 1.18 1.22 1.26 1.54 1.46 1.43 1.47 1.43 1.32 1.51 1.44 1.19 1.32 1.36 1.42 1.57 1.42 1.25
0.59 0.70 0.75 0.83 0.81 0.79 0.92 1.05 1.30 1.50 1.68 1.77 1.78 1.71 1.72 1.74 1.70 1.63 1.45 1.27 1.36 1.28 1.33 1.30 1.26 1.26 1.38 1.52 1.65 1.53 1.52 1.56 1.40 1.39 1.58 1.51 1.36 1.37 1.33 1.46 1.68 1.79 1.57
0.63 0.83 0.96 0.93 0.78 0.66 0.74 0.91 1.11 1.39 1.57 1.72 1.70 1.59 1.75 1.71 1.71 1.64 1.52 1.38 1.37 1.34 1.39 1.37 1.31 1.38 1.46 1.59 1.67 1.55 1.60 1.57 1.47 1.50 1.64 1.62 1.51 1.52 1.47 1.50 1.66 1.88 1.85
0.72 0.87 1.04 1.00 0.78 0.67 0.64 0.76 1.01 1.26 1.39 1.48 1.57 1.55 1.59 1.55 1.56 1.58 1.55 1.51 1.48 1.41 1.38 1.37 1.37 1.37 1.44 1.53 1.60 1.51 1.54 1.50 1.50 1.50 1.55 1.56 1.68 1.71 1.68 1.78 1.82 1.91 2.03
0.77 0.71 0.80 0.96 0.91 0.78 0.68 0.81 1.07 1.27 1.34 1.39 1.38 1.39 1.47 1.47 1.42 1.39 1.44 1.48 1.41 1.34 1.38 1.42 1.37 1.28 1.35 1.49 1.51 1.44 1.50 1.53 1.49 1.57 1.72 1.65 1.70 1.77 1.85 1.99 1.91 1.97 2.22
0.58 0.57 0.66 0.79 0.94 0.90 0.82 0.95 1.13 1.23 1.27 1.20 1.19 1.22 1.26 1.25 1.24 1.26 1.33 1.42 1.44 1.44 1.40 1.35 1.28 1.27 1.31 1.37 1.40 1.49 1.61 1.65 1.68 1.76 1.84 1.87 2.03 1.94 1.98 2.03 1.99 2.05 2.28
0.61 0.58 0.63 0.80 0.91 0.96 0.93 0.93 1.02 1.17 1.18 1.11 1.18 1.29 1.33 1.35 1.35 1.35 1.43 1.52 1.58 1.53 1.53 1.50 1.52 1.53 1.48 1.46 1.52 1.63 1.71 1.73 1.79 1.93 1.96 1.97 2.03 2.08 2.19 2.20 2.27 2.43 2.61
0.62 0.61 0.69 0.85 0.93 1.07 1.10 1.07 1.06 1.12 1.20 1.27 1.37 1.55 1.69 1.69 1.58 1.59 1.69 1.76 1.80 1.75 1.87 1.84 1.81 1.85 1.79 1.62 1.72 1.79 1.77 1.88 1.82 1.90 1.95 1.91 2.00 2.06 2.16 2.13 2.31 2.60 2.78
0.58 0.55 0.66 0.85 0.88 0.89 0.95 0.95 0.97 1.01 1.03 1.12 1.25 1.45 1.64 1.73 1.75 1.81 1.91 1.93 1.90 2.00 2.06 1.99 1.98 1.97 1.75 1.86 1.92 1.89 1.95 2.01 1.97 1.97 1.99 1.96 1.93 1.86 1.90 1.98 2.09 2.26 2.46
0.58 0.59 0.64 0.74 0.90 0.83 0.81 0.90 0.95 1.06 1.16 1.32 1.50 1.60 1.77 1.89 1.92 1.88 1.91 1.94 1.95 1.93 1.99 2.01 2.03 1.92 1.87 1.88 1.75 1.76 1.77 1.88 1.95 1.97 1.98 1.81 1.69 1.71 1.63 1.77 1.83 1.82 1.88
0.78 0.83 0.90 0.90 0.98 0.96 0.94 1.00 1.04 1.16 1.22 1.29 1.45 1.58 1.75 1.88 1.95 2.04 2.09 2.15 2.19 2.19 2.19 2.12 2.09 2.06 1.93 1.84 1.70 1.74 1.62 1.67 1.71 1.75 1.78 1.77 1.68 1.66 1.74 1.74 1.62 1.48 1.47
0.86 0.93 0.98 1.02 1.02 1.10 1.18 1.27 1.25 1.37 1.49 1.51 1.67 1.81 1.89 2.03 2.09 2.13 2.25 2.34 2.39 2.35 2.32 2.29 2.31 2.32 2.31 2.22 1.93 1.82 1.67 1.71 1.70 1.70 1.70 1.70 1.57 1.66 1.62 1.57 1.57 1.48 1.40
0.96 1.02 0.98 0.99 1.10 1.17 1.27 1.38 1.53 1.66 1.82 1.89 1.93 2.00 2.12 2.19 2.17 2.17 2.23 2.24 2.25 2.26 2.26 2.21 2.26 2.24 2.27 2.34 2.03 1.80 1.60 1.64 1.68 1.76 1.77 1.79 1.63 1.68 1.63 1.59 1.63 1.54 1.46
1.14 1.11 1.09 1.13 1.18 1.18 1.26 1.42 1.62 1.77 1.84 1.89 1.96 2.05 2.14 2.32 2.40 2.41 2.27 2.12 2.09 2.13 2.21 2.21 2.26 2.27 2.23 2.19 1.83 1.68 1.61 1.67 1.71 1.67 1.63 1.66 1.68 1.52 1.43 1.38 1.38 1.45 1.47
1.24 1.24 1.23 1.20 1.23 1.31 1.37 1.48 1.65 1.76 1.84 1.84 1.94 2.03 2.07 2.09 2.13 2.34 2.39 2.29 2.19 2.12 2.14 2.20 2.17 2.10 2.06 1.94 1.63 1.37 1.35 1.43 1.47 1.48 1.46 1.46 1.42 1.24 1.13 1.01 0.99 1.06 1.06
1.13 1.17 1.21 1.25 1.29 1.36 1.47 1.60 1.68 1.76 1.80 1.90 2.04 2.16 2.16 2.19 2.17 2.18 2.23 2.19 2.11 1.96 1.81 1.87 1.92 1.93 1.93 1.81 1.54 1.26 1.16 1.18 1.14 1.23 1.43 1.43 1.29 1.18 1.10 1.05 0.97 0.89 0.82
1.15 1.20 1.21 1.24 1.39 1.52 1.66 1.69 1.68 1.76 1.94 2.02 2.06 2.08 2.08 2.06 2.12 2.23 2.15 2.07 2.07 2.00 1.82 1.83 1.90 1.94 1.93 1.81 1.60 1.44 1.33 1.28 1.22 1.24 1.39 1.45 1.42 1.34 1.25 1.15 0.98 0.82 0.80
1.11 1.18 1.27 1.32 1.42 1.51 1.63 1.72 1.75 1.80 1.89 1.85 1.77 1.81 1.86 1.86 1.86 2.01 2.07 1.89 1.82 1.89 1.84 1.92 2.10 2.05 1.87 1.73 1.57 1.39 1.36 1.35 1.39 1.40 1.49 1.60 1.62 1.58 1.46 1.30 1.14 1.01 0.96
1.05 1.13 1.22 1.34 1.41 1.46 1.52 1.55 1.61 1.71 1.81 1.86 1.79 1.72 1.71 1.73 1.77 1.78 1.82 1.80 1.58 1.57 1.53 1.58 1.69 1.75 1.65 1.55 1.47 1.36 1.31 1.24 1.24 1.26 1.40 1.67 1.74 1.74 1.71 1.58 1.39 1.24 1.13

GEFSMW_prec_meanprecacc_252.txt.gz
Total_Precipitation_Accumulation
1.73 2.19 2.74 3.59 4.67 5.57 5.85 5.36 4.88 4.55 4.14 3.75 3.17 2.82 2.80 2.72 2.42 2.13 1.86 1.80 1.75 1.84 1.98 1.82 2.01 1.85 1.91 2.00 2.06 2.16 2.16 2.08 2.14 2.31 2.25 1.91 1.64 1.60 1.55 1.63 1.84 1.74 1.71
1.89 2.61 3.64 4.22 4.46 4.59 4.36 4.03 3.78 3.59 3.13 2.79 2.58 2.35 2.36 2.15 1.97 1.88 1.88 1.60 1.53 1.62 1.60 1.82 1.84 1.80 1.96 2.01 1.96 2.06 2.04 1.89 1.91 2.17 2.40 2.10 1.93 1.57 1.16 1.28 1.30 1.38 1.65
2.07 2.88 3.45 3.57 3.29 2.97 2.89 2.84 2.91 2.68 2.57 2.55 2.44 2.34 2.38 2.13 1.89 1.80 1.78 1.52 1.35 1.37 1.47 1.56 1.65 1.81 1.75 1.89 1.95 1.87 1.92 1.96 1.90 1.92 2.24 2.22 2.05 1.75 1.28 1.10 1.15 1.31 1.50
1.61 2.02 2.26 2.15 2.26 2.41 2.43 2.55 2.64 2.39 2.38 2.35 2.08 1.99 1.91 1.82 1.71 1.66 1.63 1.71 1.46 1.31 1.29 1.35 1.45 1.61 1.56 1.79 1.62 1.73 1.92 1.99 1.85 1.80 1.72 1.76 1.84 1.96 1.69 1.32 1.13 1.23 1.29
0.99 1.10 1.22 1.38 1.60 1.71 1.88 2.17 2.42 2.37 2.21 2.06 2.01 2.09 1.95 1.91 1.89 1.90 1.88 1.85 1.69 1.46 1.31 1.38 1.44 1.50 1.45 1.51 1.54 1.85 1.86 1.78 1.72 1.68 1.69 1.68 1.67 1.64 1.69 1.54 1.33 1.23 1.03
0.85 0.88 0.94 1.09 1.26 1.38 1.55 1.80 2.11 2.25 2.18 2.03 1.95 2.00 2.07 2.05 1.97 1.95 1.90 1.70 1.59 1.55 1.41 1.41 1.45 1.38 1.36 1.37 1.41 1.67 1.70 1.73 1.77 1.73 1.61 1.67 1.61 1.56 1.70 1.51 1.32 1.19 0.86
0.88 0.95 0.91 0.88 0.94 1.09 1.24 1.34 1.53 1.82 1.93 1.90 1.89 1.91 2.06 1.99 1.81 1.69 1.62 1.56 1.37 1.29 1.32 1.37 1.44 1.27 1.27 1.39 1.57 1.65 1.64 1.69 1.69 1.60 1.51 1.49 1.34 1.41 1.52 1.42 1.21 1.18 0.95
0.78 0.81 0.79 0.76 0.74 0.83 1.01 1.14 1.36 1.55 1.73 1.75 1.74 1.78 1.86 1.80 1.67 1.69 1.51 1.45 1.37 1.29 1.34 1.36 1.34 1.26 1.28 1.32 1.63 1.55 1.54 1.60 1.55 1.42 1.62 1.54 1.27 1.39 1.44 1.49 1.64 1.49 1.31
0.59 0.70 0.75 0.83 0.82 0.80 0.92 1.06 1.30 1.51 1.70 1.80 1.82 1.76 1.77 1.81 1.80 1.74 1.55 1.38 1.49 1.38 1.43 1.40 1.35 1.34 1.45 1.60 1.76 1.63 1.62 1.69 1.52 1.51 1.70 1.61 1.45 1.46 1.42 1.55 1.75 1.86 1.62
0.63 0.83 0.97 0.93 0.78 0.67 0.74 0.92 1.13 1.43 1.62 1.80 1.82 1.71 1.86 1.82 1.81 1.74 1.61 1.46 1.46 1.44 1.50 1.49 1.45 1.53 1.56 1.68 1.77 1.64 1.70 1.70 1.61 1.65 1.79 1.77 1.63 1.62 1.55 1.58 1.72 1.94 1.90
0.72 0.87 1.04 1.00 0.78 0.67 0.65 0.77 1.05 1.32 1.50 1.64 1.73 1.67 1.66 1.61 1.62 1.65 1.63 1.59 1.56 1.49 1.47 1.50 1.51 1.51 1.55 1.62 1.68 1.59 1.63 1.62 1.65 1.66 1.71 1.70 1.80 1.82 1.75 1.86 1.91 1.98 2.09
0.78 0.71 0.80 0.96 0.91 0.79 0.70 0.84 1.11 1.32 1.41 1.46 1.44 1.44 1.50 1.50 1.45 1.42 1.48 1.53 1.45 1.38 1.44 1.48 1.45 1.37 1.45 1.60 1.59 1.52 1.61 1.63 1.59 1.68 1.83 1.74 1.80 1.86 1.92 2.08 1.98 2.03 2.29
0.58 0.57 0.66 0.79 0.95 0.91 0.84 0.97 1.14 1.25 1.29 1.21 1.20 1.23 1.27 1.28 1.28 1.29 1.36 1.44 1.47 1.46 1.43 1.40 1.33 1.33 1.40 1.47 1.48 1.56 1.66 1.70 1.73 1.81 1.90 1.93 2.10 2.01 2.05 2.10 2.06 2.11 2.35
0.62 0.58 0.64 0.80 0.91 0.96 0.94 0.94 1.03 1.17 1.19 1.12 1.19 1.31 1.36 1.38 1.40 1.39 1.46 1.55 1.61 1.56 1.56 1.54 1.57 1.58 1.53 1.53 1.59 1.67 1.74 1.76 1.82 1.97 2.00 2.00 2.07 2.13 2.26 2.26 2.35 2.50 2.68
0.63 0.62 0.69 0.86 0.93 1.08 1.11 1.07 1.07 1.12 1.21 1.28 1.38 1.56 1.71 1.71 1.61 1.61 1.71 1.79 1.83 1.77 1.89 1.88 1.86 1.90 1.84 1.66 1.77 1.84 1.81 1.92 1.86 1.94 1.98 1.94 2.04 2.10 2.21 2.17 2.36 2.67 2.85
0.59 0.55 0.66 0.86 0.88 0.89 0.96 0.95 0.98 1.02 1.04 1.12 1.26 1.46 1.66 1.76 1.77 1.83 1.94 1.95 1.92 2.02 2.09 2.02 2.03 2.03 1.80 1.91 1.96 1.94 2.00 2.05 2.01 2.02 2.03 1.99 1.97 1.89 1.93 2.01 2.14 2.33 2.53
0.58 0.59 0.64 0.75 0.91 0.84 0.81 0.90 0.96 1.06 1.16 1.33 1.51 1.63 1.79 1.92 1.94 1.90 1.94 1.98 1.98 1.97 2.03 2.05 2.07 1.97 1.92 1.93 1.79 1.80 1.82 1.93 1.99 2.02 2.02 1.85 1.72 1.75 1.67 1.81 1.88 1.87 1.93
0.78 0.84 0.90 0.91 0.99 0.97 0.94 1.00 1.05 1.17 1.23 1.30 1.46 1.59 1.78 1.90 1.97 2.06 2.11 2.18 2.23 2.24 2.24 2.16 2.13 2.10 1.99 1.88 1.73 1.78 1.66 1.71 1.76 1.80 1.82 1.81 1.71 1.70 1.79 1.78 1.66 1.51 1.50
0.87 0.93 0.99 1.03 1.03 1.11 1.19 1.27 1.26 1.37 1.50 1.52 1.68 1.82 1.91 2.05 2.11 2.16 2.28 2.38 2.45 2.40 2.37 2.34 2.36 2.37 2.36 2.27 1.98 1.87 1.71 1.75 1.75 1.74 1.74 1.72 1.59 1.71 1.65 1.60 1.60 1.51 1.43
0.98 1.02 0.98 0.99 1.10 1.17 1.27 1.39 1.54 1.67 1.83 1.91 1.96 2.03 2.15 2.22 2.20 2.21 2.28 2.31 2.34 2.34 2.33 2.27 2.32 2.30 2.32 2.39 2.09 1.86 1.65 1.69 1.72 1.80 1.81 1.82 1.67 1.73 1.66 1.62 1.65 1.56 1.48
1.16 1.12 1.10 1.14 1.18 1.19 1.27 1.43 1.63 1.79 1.86 1.92 1.99 2.09 2.19 2.38 2.47 2.48 2.35 2.20 2.19 2.24 2.33 2.32 2.36 2.34 2.28 2.22 1.88 1.74 1.67 1.73 1.77 1.71 1.67 1.71 1.72 1.55 1.45 1.40 1.40 1.47 1.50
1.25 1.25 1.24 1.22 1.24 1.33 1.39 1.50 1.67 1.79 1.87 1.88 1.99 2.10 2.15 2.16 2.20 2.42 2.47 2.38 2.28 2.20 2.23 2.30 2.26 2.18 2.11 1.98 1.68 1.42 1.40 1.49 1.53 1.53 1.51 1.51 1.48 1.29 1.16 1.03 1.02 1.09 1.08
1.16 1.18 1.23 1.27 1.32 1.38 1.49 1.63 1.70 1.78 1.82 1.93 2.09 2.23 2.25 2.29 2.26 2.26 2.32 2.28 2.20 2.06 1.90 1.95 2.00 2.01 2.01 1.89 1.60 1.32 1.21 1.22 1.18 1.27 1.48 1.48 1.35 1.23 1.14 1.08 1.00 0.92 0.85
1.19 1.24 1.24 1.28 1.42 1.54 1.68 1.71 1.70 1.78 1.96 2.05 2.11 2.15 2.17 2.15 2.21 2.30 2.22 2.15 2.14 2.07 1.89 1.90 1.95 1.99 1.99 1.86 1.64 1.48 1.37 1.32 1.25 1.28 1.43 1.49 1.46 1.37 1.28 1.18 1.02 0.85 0.84
1.15 1.24 1.32 1.36 1.45 1.54 1.66 1.74 1.77 1.83 1.92 1.88 1.83 1.89 1.97 1.97 1.95 2.09 2.14 1.95 1.87 1.94 1.89 1.96 2.14 2.10 1.92 1.76 1.60 1.42 1.39 1.38 1.42 1.43 1.52 1.63 1.64 1.60 1.48 1.32 1.17 1.06 1.01
1.10 1.19 1.27 1.38 1.44 1.48 1.54 1.57 1.63 1.74 1.86 1.91 1.87 1.84 1.86 1.89 1.89 1.88 1.91 1.87 1.66 1.64 1.58 1.64 1.73 1.78 1.69 1.59 1.51 1.41 1.36 1.29 1.29 1.30 1.44 1.70 1.77 1.77 1.74 1.62 1.43 1.28 1.18

GEFSMW_prec_meanprecacc_258.txt.gz
Total_Precipitation_Accumulation
1.74 2.20 2.75 3.60 4.67 5.58 5.85 5.37 4.89 4.57 4.15 3.77 3.20 2.84 2.88 2.79 2.48 2.19 1.91 1.84 1.78 1.86 2.02 1.85 2.04 1.88 1.93 2.03 2.10 2.20 2.19 2.12 2.19 2.36 2.30 1.96 1.69 1.63 1.58 1.66 1.88 1.79 1.76
1.90 2.62 3.64 4.22 4.46 4.59 4.36 4.04 3.79 3.60 3.14 2.80 2.60 2.39 2.42 2.19 2.03 1.95 1.96 1.66 1.57 1.65 1.63 1.85 1.86 1.82 1.98 2.03 1.98 2.08 2.07 1.91 1.95 2.21 2.43 2.14 1.96 1.60 1.19 1.31 1.33 1.42 1.71
2.09 2.89 3.46 3.59 3.29 2.98 2.90 2.85 2.92 2.69 2.57 2.56 2.46 2.38 2.42 2.16 1.93 1.85 1.86 1.58 1.39 1.41 1.50 1.59 1.67 1.84 1.77 1.91 1.97 1.89 1.95 1.99 1.94 1.96 2.28 2.25 2.07 1.76 1.30 1.12 1.18 1.35 1.55
1.62 2.05 2.29 2.17 2.27 2.41 2.44 2.55 2.65 2.40 2.39 2.36 2.09 2.01 1.93 1.84 1.74 1.70 1.68 1.76 1.49 1.35 1.32 1.38 1.48 1.64 1.59 1.81 1.65 1.76 1.95 2.02 1.89 1.84 1.75 1.79 1.87 1.98 1.71 1.34 1.16 1.29 1.36
1.00 1.12 1.25 1.40 1.61 1.71 1.88 2.17 2.43 2.37 2.21 2.06 2.02 2.09 1.96 1.93 1.92 1.94 1.92 1.90 1.76 1.52 1.35 1.41 1.48 1.54 1.49 1.54 1.57 1.89 1.91 1.83 1.76 1.73 1.73 1.73 1.71 1.68 1.72 1.57 1.36 1.28 1.08
0.86 0.90 0.96 1.11 1.27 1.38 1.55 1.80 2.12 2.26 2.19 2.04 1.96 2.02 2.09 2.06 1.99 1.98 1.94 1.75 1.66 1.61 1.47 1.46 1.51 1.43 1.40 1.41 1.45 1.71 1.75 1.79 1.85 1.81 1.68 1.74 1.68 1.61 1.74 1.54 1.34 1.22 0.89
0.90 0.97 0.92 0.89 0.95 1.09 1.24 1.34 1.54 1.83 1.94 1.91 1.90 1.94 2.09 2.01 1.83 1.72 1.66 1.61 1.43 1.35 1.38 1.43 1.54 1.39 1.37 1.45 1.61 1.68 1.67 1.73 1.75 1.68 1.59 1.57 1.41 1.47 1.56 1.48 1.26 1.21 0.97
0.80 0.82 0.81 0.79 0.76 0.84 1.03 1.16 1.38 1.57 1.76 1.78 1.77 1.81 1.89 1.83 1.70 1.71 1.54 1.49 1.42 1.35 1.42 1.46 1.45 1.41 1.40 1.40 1.68 1.60 1.58 1.64 1.59 1.48 1.69 1.61 1.33 1.46 1.51 1.57 1.71 1.54 1.35
0.61 0.73 0.78 0.86 0.85 0.83 0.95 1.10 1.34 1.56 1.74 1.84 1.87 1.82 1.82 1.84 1.82 1.77 1.57 1.41 1.53 1.43 1.51 1.53 1.46 1.45 1.56 1.68 1.83 1.71 1.70 1.76 1.60 1.60 1.81 1.70 1.53 1.53 1.49 1.65 1.88 1.95 1.68
0.66 0.85 0.99 0.96 0.81 0.69 0.76 0.95 1.18 1.49 1.69 1.86 1.87 1.75 1.89 1.85 1.85 1.79 1.66 1.50 1.49 1.47 1.57 1.67 1.60 1.63 1.67 1.79 1.87 1.74 1.82 1.81 1.69 1.72 1.88 1.86 1.72 1.71 1.63 1.67 1.82 2.03 1.97
0.74 0.89 1.06 1.02 0.80 0.68 0.67 0.80 1.08 1.35 1.54 1.67 1.75 1.69 1.67 1.62 1.63 1.68 1.67 1.63 1.60 1.53 1.52 1.59 1.62 1.59 1.64 1.74 1.82 1.71 1.74 1.73 1.74 1.73 1.78 1.78 1.91 1.92 1.85 1.96 2.01 2.08 2.19
0.79 0.74 0.85 0.99 0.93 0.80 0.71 0.85 1.12 1.33 1.42 1.47 1.45 1.45 1.51 1.51 1.46 1.44 1.49 1.54 1.47 1.41 1.46 1.52 1.48 1.40 1.50 1.67 1.71 1.64 1.70 1.73 1.69 1.77 1.91 1.81 1.88 1.94 2.01 2.18 2.09 2.15 2.42
0.60 0.60 0.71 0.82 0.97 0.92 0.85 0.98 1.15 1.25 1.29 1.22 1.21 1.24 1.28 1.29 1.29 1.31 1.38 1.46 1.48 1.48 1.45 1.42 1.35 1.35 1.42 1.50 1.52 1.61 1.72 1.77 1.79 1.88 1.95 1.98 2.15 2.06 2.10 2.15 2.12 2.17 2.41
0.64 0.60 0.65 0.81 0.92 0.97 0.95 0.95 1.03 1.18 1.19 1.12 1.20 1.32 1.37 1.40 1.41 1.40 1.47 1.57 1.63 1.58 1.58 1.55 1.58 1.60 1.56 1.56 1.62 1.71 1.77 1.79 1.85 1.99 2.03 2.05 2.11 2.17 2.31 2.31 2.38 2.53 2.72
0.66 0.64 0.71 0.87 0.95 1.09 1.12 1.08 1.08 1.12 1.21 1.29 1.40 1.58 1.73 1.75 1.64 1.64 1.74 1.81 1.86 1.80 1.92 1.90 1.88 1.93 1.88 1.70 1.81 1.89 1.83 1.94 1.88 1.96 2.01 1.99 2.09 2.15 2.25 2.20 2.39 2.70 2.89
0.63 0.58 0.68 0.87 0.89 0.90 0.96 0.96 1.00 1.03 1.06 1.16 1.30 1.51 1.71 1.82 1.83 1.88 1.99 2.01 1.98 2.09 2.17 2.10 2.07 2.06 1.83 1.94 2.00 1.98 2.05 2.09 2.04 2.05 2.08 2.05 2.03 1.94 1.96 2.04 2.17 2.36 2.56
0.60 0.61 0.65 0.75 0.92 0.84 0.82 0.91 0.98 1.09 1.20 1.37 1.55 1.66 1.82 1.96 1.98 1.95 1.99 2.03 2.05 2.04 2.09 2.10 2.13 2.02 1.96 1.96 1.82 1.84 1.87 1.99 2.05 2.08 2.08 1.90 1.76 1.80 1.71 1.85 1.91 1.90 1.96
0.79 0.84 0.91 0.92 1.00 0.98 0.96 1.02 1.06 1.19 1.25 1.32 1.48 1.61 1.80 1.93 2.01 2.10 2.14 2.21 2.27 2.28 2.28 2.23 2.20 2.18 2.04 1.93 1.77 1.84 1.74 1.80 1.84 1.87 1.90 1.87 1.76 1.75 1.83 1.82 1.70 1.55 1.52
0.88 0.95 1.01 1.06 1.06 1.13 1.20 1.28 1.28 1.40 1.51 1.53 1.70 1.84 1.94 2.08 2.15 2.18 2.30 2.41 2.48 2.45 2.43 2.41 2.42 2.42 2.40 2.33 2.04 1.96 1.80 1.84 1.83 1.82 1.83 1.80 1.65 1.76 1.70 1.64 1.65 1.55 1.46
0.99 1.06 1.03 1.02 1.14 1.22 1.32 1.42 1.55 1.69 1.84 1.92 1.97 2.05 2.17 2.24 2.23 2.24 2.31 2.35 2.38 2.39 2.39 2.33 2.39 2.37 2.39 2.46 2.18 1.96 1.73 1.76 1.79 1.87 1.88 1.88 1.72 1.78 1.71 1.65 1.69 1.59 1.51
1.18 1.15 1.12 1.16 1.21 1.22 1.30 1.47 1.65 1.81 1.88 1.94 2.02 2.13 2.23 2.42 2.53 2.55 2.41 2.27 2.26 2.32 2.41 2.40 2.46 2.46 2.41 2.36 2.01 1.87 1.78 1.84 1.88 1.83 1.78 1.79 1.80 1.61 1.50 1.44 1.43 1.49 1.52
1.27 1.27 1.27 1.24 1.27 1.35 1.41 1.52 1.70 1.82 1.90 1.91 2.03 2.15 2.21 2.22 2.26 2.50 2.55 2.48 2.38 2.31 2.34 2.42 2.37 2.30 2.24 2.11 1.81 1.57 1.57 1.65 1.67 1.66 1.62 1.61 1.56 1.35 1.21 1.07 1.05 1.12 1.11
1.19 1.22 1.26 1.30 1.35 1.42 1.53 1.65 1.73 1.81 1.85 1.98 2.14 2.29 2.34 2.38 2.34 2.35 2.41 2.38 2.30 2.16 2.03 2.09 2.13 2.12 2.13 1.99 1.70 1.42 1.33 1.36 1.30 1.37 1.56 1.55 1.41 1.28 1.19 1.12 1.04 0.96 0.89
1.25 1.28 1.28 1.31 1.44 1.57 1.71 1.74 1.73 1.82 2.00 2.08 2.14 2.20 2.25 2.27 2.31 2.42 2.34 2.26 2.24 2.17 2.00 2.01 2.05 2.08 2.07 1.94 1.70 1.52 1.42 1.37 1.30 1.33 1.50 1.56 1.54 1.43 1.32 1.22 1.06 0.89 0.87
1.24 1.29 1.37 1.39 1.48 1.57 1.70 1.79 1.82 1.88 1.95 1.91 1.86 1.94 2.04 2.08 2.08 2.22 2.29 2.11 2.01 2.05 1.96 2.02 2.19 2.14 1.96 1.81 1.65 1.46 1.42 1.42 1.47 1.48 1.57 1.68 1.70 1.67 1.54 1.37 1.21 1.10 1.04
1.18 1.27 1.34 1.43 1.47 1.52 1.60 1.63 1.70 1.80 1.90 1.95 1.91 1.90 1.94 1.98 2.00 1.97 2.01 1.97 1.73 1.69 1.61 1.67 1.77 1.82 1.73 1.63 1.55 1.46 1.41 1.35 1.35 1.36 1.51 1.77 1.84 1.84 1.80 1.68 1.48 1.33 1.23

GEFSMW_prec_meanprecacc_264.txt.gz
Total_Precipitation_Accumulation
1.75 2.21 2.76 3.60 4.68 5.58 5.86 5.37 4.90 4.58 4.16 3.78 3.22 2.87 2.92 2.81 2.51 2.24 1.96 1.88 1.82 1.90 2.06 1.88 2.07 1.92 1.98 2.07 2.14 2.25 2.24 2.15 2.22 2.40 2.34 1.98 1.71 1.64 1.60 1.68 1.91 1.82 1.80
1.91 2.63 3.66 4.23 4.47 4.60 4.37 4.04 3.80 3.61 3.16 2.84 2.67 2.45 2.50 2.25 2.08 2.01 2.03 1.71 1.62 1.69 1.66 1.88 1.89 1.87 2.04 2.08 2.03 2.13 2.11 1.95 1.99 2.25 2.47 2.15 1.97 1.61 1.20 1.32 1.34 1.44 1.74
2.10 2.90 3.47 3.59 3.30 3.00 2.92 2.86 2.93 2.69 2.59 2.61 2.54 2.47 2.52 2.24 2.00 1.91 1.95 1.64 1.44 1.46 1.54 1.62 1.70 1.88 1.81 1.95 2.00 1.92 1.98 2.01 1.97 1.99 2.31 2.27 2.08 1.77 1.31 1.14 1.20 1.37 1.58
1.63 2.06 2.30 2.19 2.30 2.45 2.46 2.57 2.65 2.40 2.39 2.37 2.11 2.05 2.02 1.90 1.78 1.75 1.80 1.88 1.55 1.38 1.36 1.42 1.52 1.68 1.63 1.84 1.67 1.79 1.98 2.04 1.91 1.86 1.78 1.82 1.89 2.00 1.72 1.35 1.19 1.32 1.39
1.01 1.13 1.26 1.42 1.62 1.73 1.90 2.19 2.44 2.38 2.22 2.07 2.03 2.11 1.99 1.95 1.94 1.96 1.98 2.01 1.81 1.56 1.38 1.45 1.53 1.59 1.54 1.59 1.61 1.94 1.95 1.86 1.78 1.75 1.76 1.76 1.74 1.70 1.75 1.59 1.37 1.30 1.11
0.87 0.90 0.97 1.12 1.28 1.40 1.56 1.81 2.14 2.28 2.20 2.05 1.97 2.03 2.10 2.08 2.01 2.00 1.97 1.78 1.69 1.64 1.48 1.49 1.53 1.46 1.44 1.46 1.51 1.77 1.79 1.83 1.89 1.85 1.73 1.78 1.72 1.66 1.78 1.56 1.35 1.24 0.91
0.91 0.97 0.93 0.91 0.97 1.11 1.26 1.36 1.58 1.87 1.97 1.93 1.91 1.94 2.10 2.03 1.86 1.75 1.68 1.62 1.44 1.38 1.40 1.46 1.57 1.42 1.39 1.47 1.65 1.74 1.74 1.78 1.80 1.73 1.65 1.62 1.45 1.53 1.61 1.51 1.29 1.23 0.99
0.81 0.83 0.83 0.81 0.78 0.86 1.04 1.18 1.40 1.59 1.79 1.81 1.79 1.83 1.92 1.85 1.72 1.73 1.55 1.50 1.43 1.37 1.46 1.50 1.49 1.45 1.43 1.43 1.72 1.65 1.64 1.71 1.66 1.56 1.76 1.67 1.40 1.53 1.58 1.63 1.76 1.59 1.38
0.62 0.74 0.79 0.88 0.87 0.85 0.97 1.11 1.35 1.57 1.76 1.87 1.90 1.85 1.85 1.87 1.84 1.78 1.58 1.42 1.54 1.45 1.55 1.58 1.52 1.51 1.62 1.74 1.88 1.76 1.76 1.82 1.67 1.68 1.88 1.75 1.58 1.58 1.54 1.70 1.92 2.00 1.72
0.67 0.86 1.00 0.98 0.82 0.70 0.78 0.97 1.20 1.51 1.71 1.89 1.89 1.77 1.91 1.86 1.86 1.81 1.68 1.52 1.50 1.49 1.60 1.72 1.68 1.71 1.73 1.84 1.92 1.78 1.86 1.86 1.75 1.79 1.95 1.91 1.77 1.75 1.66 1.70 1.86 2.07 2.01
0.75 0.90 1.08 1.03 0.81 0.70 0.69 0.83 1.14 1.40 1.56 1.68 1.76 1.70 1.68 1.62 1.64 1.68 1.68 1.64 1.61 1.54 1.56 1.64 1.66 1.63 1.68 1.77 1.85 1.73 1.78 1.76 1.78 1.77 1.83 1.84 1.97 1.97 1.89 2.00 2.05 2.12 2.23
0.80 0.75 0.87 1.00 0.94 0.81 0.74 0.92 1.19 1.37 1.44 1.48 1.46 1.46 1.51 1.51 1.46 1.44 1.50 1.55 1.48 1.42 1.48 1.53 1.50 1.44 1.55 1.70 1.73 1.66 1.73 1.77 1.73 1.81 1.95 1.87 1.94 2.00 2.06 2.22 2.12 2.19 2.47
0.60 0.60 0.72 0.83 0.98 0.95 0.90 1.03 1.18 1.27 1.32 1.24 1.22 1.24 1.28 1.29 1.30 1.32 1.38 1.47 1.49 1.49 1.46 1.43 1.36 1.37 1.45 1.53 1.54 1.63 1.75 1.80 1.82 1.91 1.99 2.03 2.21 2.11 2.15 2.20 2.14 2.19 2.44
0.64 0.61 0.66 0.82 0.94 1.00 0.99 0.98 1.06 1.20 1.21 1.14 1.22 1.33 1.37 1.41 1.43 1.42 1.48 1.58 1.64 1.59 1.59 1.57 1.59 1.61 1.58 1.58 1.64 1.73 1.80 1.82 1.87 2.02 2.05 2.08 2.16 2.22 2.36 2.35 2.41 2.56 2.74
0.67 0.65 0.72 0.88 0.96 1.11 1.14 1.10 1.10 1.15 1.23 1.30 1.41 1.59 1.75 1.79 1.69 1.67 1.76 1.84 1.88 1.82 1.94 1.91 1.89 1.94 1.90 1.71 1.84 1.91 1.86 1.96 1.90 1.98 2.03 2.01 2.13 2.20 2.30 2.23 2.42 2.73 2.92
0.65 0.60 0.70 0.89 0.91 0.92 0.99 0.99 1.02 1.05 1.08 1.18 1.33 1.55 1.75 1.87 1.87 1.92 2.03 2.06 2.02 2.13 2.21 2.13 2.10 2.08 1.84 1.95 2.02 2.01 2.08 2.11 2.06 2.07 2.10 2.08 2.07 1.99 2.01 2.08 2.21 2.40 2.59
0.63 0.66 0.69 0.79 0.95 0.87 0.84 0.93 1.01 1.12 1.22 1.40 1.59 1.71 1.87 2.00 2.03 2.00 2.03 2.08 2.11 2.09 2.14 2.14 2.17 2.05 1.99 1.99 1.84 1.87 1.90 2.02 2.07 2.11 2.13 1.95 1.82 1.87 1.77 1.91 1.97 1.94 1.99
0.82 0.89 0.97 0.96 1.04 1.01 0.98 1.04 1.09 1.22 1.28 1.36 1.53 1.66 1.85 1.98 2.05 2.14 2.19 2.26 2.33 2.34 2.33 2.27 2.25 2.21 2.07 1.96 1.80 1.88 1.78 1.83 1.87 1.92 1.95 1.93 1.83 1.82 1.90 1.90 1.77 1.60 1.55
0.91 0.99 1.05 1.11 1.10 1.17 1.23 1.31 1.30 1.42 1.55 1.57 1.74 1.88 1.98 2.11 2.18 2.22 2.34 2.45 2.53 2.50 2.50 2.47 2.46 2.45 2.43 2.36 2.07 1.99 1.83 1.87 1.86 1.87 1.87 1.84 1.71 1.84 1.80 1.73 1.72 1.60 1.49
1.02 1.09 1.05 1.05 1.19 1.26 1.34 1.44 1.59 1.72 1.87 1.95 2.01 2.09 2.20 2.27 2.26 2.28 2.36 2.39 2.42 2.43 2.45 2.39 2.45 2.42 2.43 2.50 2.22 2.01 1.77 1.80 1.83 1.92 1.93 1.94 1.78 1.85 1.80 1.75 1.76 1.65 1.55
1.20 1.16 1.13 1.17 1.24 1.25 1.33 1.50 1.69 1.84 1.91 1.97 2.05 2.15 2.25 2.45 2.56 2.59 2.47 2.33 2.32 2.39 2.49 2.49 2.54 2.54 2.47 2.43 2.08 1.94 1.84 1.90 1.93 1.88 1.83 1.84 1.84 1.67 1.57 1.51 1.51 1.56 1.59
1.29 1.29 1.28 1.26 1.29 1.38 1.44 1.55 1.72 1.84 1.92 1.93 2.05 2.17 2.24 2.25 2.30 2.56 2.62 2.57 2.48 2.40 2.43 2.51 2.46 2.37 2.32 2.19 1.89 1.65 1.63 1.71 1.72 1.70 1.67 1.66 1.62 1.42 1.28 1.14 1.11 1.18 1.18
1.20 1.23 1.27 1.32 1.37 1.43 1.54 1.67 1.74 1.82 1.87 1.99 2.16 2.31 2.38 2.42 2.39 2.42 2.50 2.47 2.39 2.25 2.11 2.17 2.21 2.20 2.21 2.08 1.77 1.47 1.37 1.40 1.35 1.42 1.62 1.61 1.47 1.34 1.25 1.18 1.10 1.02 0.94
1.26 1.29 1.29 1.31 1.45 1.58 1.72 1.74 1.74 1.83 2.01 2.09 2.16 2.22 2.27 2.30 2.34 2.47 2.40 2.33 2.32 2.25 2.07 2.09 2.13 2.15 2.13 1.98 1.73 1.55 1.45 1.40 1.33 1.36 1.53 1.61 1.59 1.50 1.40 1.29 1.12 0.95 0.93
1.25 1.31 1.39 1.41 1.49 1.58 1.71 1.80 1.83 1.88 1.96 1.93 1.87 1.96 2.07 2.12 2.13 2.29 2.36 2.18 2.08 2.13 2.03 2.09 2.25 2.19 1.99 1.83 1.67 1.48 1.44 1.44 1.49 1.50 1.59 1.70 1.73 1.71 1.60 1.44 1.29 1.18 1.13
1.24 1.33 1.38 1.46 1.51 1.54 1.61 1.65 1.71 1.81 1.92 1.97 1.94 1.93 1.97 2.03 2.06 2.05 2.09 2.05 1.82 1.77 1.69 1.73 1.81 1.86 1.76 1.65 1.56 1.47 1.43 1.37 1.38 1.38 1.52 1.79 1.86 1.87 1.84 1.73 1.55 1.40 1.31

GEFSMW_prec_meanprecacc_270.txt.gz
Total_Precipitation_Accumulation
1.75 2.21 2.76 3.61 4.68 5.60 5.87 5.38 4.91 4.60 4.20 3.82 3.25 2.90 2.95 2.85 2.55 2.29 2.01 1.95 1.88 1.96 2.13 1.92 2.11 1.97 2.04 2.14 2.21 2.32 2.33 2.24 2.30 2.48 2.41 2.04 1.75 1.68 1.63 1.71 1.94 1.84 1.83
1.91 2.63 3.66 4.24 4.47 4.61 4.38 4.05 3.81 3.62 3.18 2.89 2.76 2.54 2.57 2.30 2.13 2.06 2.09 1.78 1.68 1.75 1.71 1.93 1.95 1.94 2.11 2.15 2.11 2.21 2.19 2.02 2.07 2.34 2.56 2.23 2.03 1.65 1.24 1.35 1.37 1.47 1.77
2.10 2.90 3.47 3.60 3.31 3.00 2.92 2.87 2.94 2.70 2.60 2.64 2.60 2.54 2.58 2.30 2.07 1.97 2.01 1.71 1.50 1.50 1.58 1.66 1.77 1.96 1.88 2.02 2.07 1.99 2.07 2.10 2.05 2.07 2.42 2.37 2.16 1.83 1.36 1.17 1.23 1.40 1.61
1.63 2.06 2.30 2.19 2.31 2.45 2.46 2.57 2.65 2.41 2.41 2.38 2.13 2.07 2.05 1.95 1.85 1.82 1.88 1.95 1.60 1.42 1.39 1.46 1.58 1.75 1.70 1.91 1.73 1.84 2.05 2.13 2.00 1.94 1.86 1.90 1.96 2.07 1.79 1.40 1.22 1.34 1.41
1.01 1.13 1.26 1.42 1.63 1.73 1.90 2.19 2.44 2.39 2.23 2.07 2.04 2.12 2.00 1.97 1.97 2.00 2.03 2.07 1.86 1.61 1.42 1.50 1.58 1.65 1.61 1.65 1.67 2.01 2.01 1.93 1.87 1.84 1.83 1.83 1.82 1.77 1.81 1.65 1.42 1.33 1.14
0.87 0.90 0.97 1.12 1.29 1.40 1.56 1.81 2.14 2.29 2.21 2.06 1.99 2.05 2.12 2.10 2.03 2.04 2.00 1.81 1.76 1.73 1.58 1.58 1.63 1.54 1.49 1.52 1.58 1.84 1.85 1.89 1.96 1.92 1.79 1.86 1.79 1.73 1.86 1.63 1.42 1.29 0.94
0.91 0.97 0.93 0.91 0.97 1.12 1.26 1.36 1.58 1.87 1.98 1.94 1.92 1.96 2.12 2.05 1.88 1.77 1.70 1.65 1.48 1.43 1.48 1.53 1.64 1.49 1.44 1.52 1.70 1.80 1.80 1.85 1.86 1.80 1.71 1.69 1.52 1.60 1.69 1.59 1.35 1.28 1.02
0.81 0.83 0.83 0.81 0.78 0.86 1.04 1.18 1.41 1.60 1.80 1.82 1.80 1.84 1.93 1.86 1.74 1.75 1.57 1.52 1.45 1.39 1.50 1.56 1.53 1.49 1.48 1.48 1.77 1.70 1.70 1.77 1.73 1.63 1.84 1.75 1.47 1.61 1.66 1.72 1.85 1.66 1.43
0.62 0.74 0.79 0.88 0.87 0.85 0.97 1.12 1.36 1.60 1.80 1.89 1.91 1.86 1.86 1.87 1.85 1.79 1.59 1.43 1.55 1.47 1.58 1.61 1.55 1.55 1.67 1.80 1.94 1.82 1.82 1.89 1.73 1.74 1.94 1.82 1.63 1.63 1.61 1.78 2.02 2.11 1.80
0.67 0.86 1.00 0.98 0.83 0.71 0.79 0.98 1.24 1.59 1.78 1.91 1.90 1.78 1.92 1.86 1.86 1.82 1.68 1.52 1.51 1.52 1.63 1.74 1.70 1.74 1.77 1.89 1.97 1.83 1.90 1.90 1.80 1.83 1.99 1.98 1.83 1.81 1.73 1.76 1.92 2.15 2.09
0.75 0.90 1.08 1.04 0.82 0.71 0.70 0.84 1.18 1.46 1.60 1.70 1.77 1.71 1.69 1.63 1.64 1.69 1.68 1.65 1.63 1.57 1.58 1.65 1.68 1.66 1.71 1.80 1.88 1.77 1.81 1.80 1.82 1.82 1.87 1.91 2.04 2.03 1.95 2.06 2.10 2.18 2.30
0.80 0.76 0.88 1.01 0.95 0.82 0.75 0.93 1.21 1.39 1.45 1.49 1.48 1.46 1.52 1.52 1.46 1.45 1.50 1.56 1.49 1.43 1.49 1.54 1.51 1.45 1.57 1.73 1.76 1.69 1.76 1.80 1.77 1.86 2.01 1.93 2.01 2.07 2.12 2.28 2.18 2.25 2.54
0.60 0.61 0.73 0.84 0.99 0.96 0.91 1.05 1.20 1.29 1.33 1.25 1.23 1.26 1.29 1.30 1.30 1.32 1.39 1.47 1.50 1.50 1.48 1.45 1.38 1.38 1.46 1.54 1.57 1.66 1.78 1.83 1.86 1.96 2.05 2.08 2.27 2.17 2.21 2.26 2.21 2.26 2.50
0.64 0.61 0.66 0.83 0.95 1.02 1.00 0.99 1.08 1.22 1.24 1.17 1.24 1.34 1.38 1.41 1.44 1.42 1.49 1.59 1.65 1.60 1.61 1.59 1.61 1.62 1.59 1.60 1.66 1.75 1.82 1.84 1.89 2.04 2.09 2.13 2.20 2.27 2.42 2.40 2.47 2.63 2.80
0.68 0.65 0.72 0.89 0.97 1.12 1.15 1.12 1.12 1.18 1.27 1.34 1.44 1.63 1.78 1.81 1.71 1.69 1.78 1.86 1.90 1.84 1.97 1.94 1.91 1.96 1.92 1.72 1.85 1.93 1.88 1.98 1.91 2.00 2.06 2.04 2.16 2.24 2.36 2.28 2.47 2.80 2.98
0.65 0.60 0.70 0.90 0.92 0.93 1.00 1.00 1.04 1.07 1.10 1.21 1.37 1.59 1.81 1.93 1.92 1.96 2.07 2.11 2.07 2.17 2.25 2.17 2.13 2.11 1.86 1.96 2.03 2.02 2.11 2.14 2.09 2.11 2.14 2.11 2.10 2.03 2.07 2.13 2.26 2.47 2.66
0.63 0.66 0.69 0.80 0.96 0.88 0.85 0.95 1.03 1.14 1.24 1.42 1.61 1.73 1.91 2.06 2.08 2.04 2.07 2.12 2.15 2.14 2.18 2.18 2.20 2.07 2.01 2.01 1.86 1.88 1.93 2.06 2.12 2.16 2.18 2.00 1.86 1.92 1.82 1.96 2.03 2.00 2.05
0.83 0.90 0.98 0.97 1.05 1.03 1.00 1.06 1.12 1.24 1.31 1.38 1.55 1.67 1.87 2.01 2.09 2.18 2.22 2.30 2.37 2.38 2.37 2.30 2.27 2.23 2.09 1.98 1.82 1.89 1.80 1.86 1.91 1.96 2.00 1.97 1.86 1.86 1.96 1.96 1.83 1.65 1.61
0.92 1.00 1.07 1.12 1.12 1.19 1.25 1.33 1.32 1.44 1.57 1.59 1.76 1.90 2.00 2.14 2.21 2.25 2.38 2.49 2.57 2.55 2.55 2.51 2.49 2.48 2.46 2.39 2.10 2.02 1.86 1.90 1.90 1.91 1.91 1.88 1.75 1.90 1.85 1.78 1.76 1.65 1.53
1.03 1.11 1.07 1.07 1.20 1.28 1.36 1.46 1.61 1.74 1.90 1.97 2.03 2.11 2.23 2.31 2.31 2.33 2.42 2.44 2.45 2.46 2.49 2.44 2.51 2.48 2.47 2.54 2.27 2.07 1.82 1.84 1.88 1.97 1.98 2.00 1.84 1.91 1.85 1.79 1.80 1.68 1.58
1.22 1.19 1.15 1.19 1.26 1.29 1.38 1.53 1.71 1.87 1.94 2.00 2.08 2.17 2.27 2.48 2.61 2.64 2.50 2.35 2.35 2.43 2.53 2.53 2.59 2.59 2.52 2.47 2.14 1.99 1.91 1.96 2.00 1.96 1.90 1.91 1.92 1.72 1.60 1.53 1.52 1.58 1.63
1.31 1.32 1.32 1.29 1.33 1.42 1.49 1.61 1.77 1.87 1.95 1.96 2.08 2.19 2.26 2.27 2.32 2.58 2.65 2.60 2.51 2.44 2.47 2.55 2.50 2.43 2.37 2.25 1.95 1.71 1.69 1.76 1.78 1.77 1.73 1.71 1.67 1.47 1.33 1.17 1.13 1.21 1.22
1.25 1.27 1.30 1.35 1.40 1.47 1.58 1.73 1.82 1.89 1.91 2.02 2.18 2.33 2.39 2.44 2.41 2.44 2.53 2.50 2.42 2.28 2.14 2.20 2.25 2.25 2.26 2.13 1.83 1.53 1.43 1.45 1.39 1.46 1.66 1.64 1.50 1.37 1.28 1.22 1.14 1.05 0.97
1.32 1.34 1.33 1.36 1.49 1.62 1.76 1.78 1.78 1.88 2.06 2.13 2.18 2.24 2.29 2.32 2.36 2.49 2.42 2.35 2.35 2.28 2.10 2.11 2.16 2.18 2.16 2.02 1.77 1.59 1.49 1.45 1.38 1.40 1.56 1.63 1.61 1.52 1.41 1.31 1.15 0.98 0.96
1.29 1.34 1.43 1.47 1.55 1.62 1.76 1.84 1.86 1.90 1.99 1.95 1.90 1.98 2.08 2.13 2.15 2.31 2.38 2.21 2.11 2.16 2.06 2.12 2.28 2.22 2.02 1.86 1.70 1.51 1.47 1.47 1.51 1.52 1.61 1.71 1.74 1.72 1.61 1.45 1.30 1.19 1.15
1.25 1.37 1.44 1.54 1.57 1.60 1.66 1.68 1.73 1.83 1.93 1.98 1.95 1.94 1.98 2.04 2.08 2.07 2.12 2.08 1.86 1.82 1.74 1.78 1.86 1.89 1.78 1.66 1.58 1.48 1.44 1.39 1.40 1.40 1.54 1.80 1.87 1.87 1.84 1.73 1.56 1.42 1.33